METOP-C (43689 NORAD) Tracking and Keplerian Element Data

This shows tracking and keplerian element data for the satellite.

Feedback or suggestion? Click here.




ElementValue
Catalog43689
NameMETOP-C
Epoch Orbit2345
Epoch Day111.13678141
Epoch Year2019
RAAN171.5664
Inclination98.71
Eccentricity0.000328
Argument of Perigee121.8001
Mean Anonmoly238.3505
Mean Motion14.2148312
Decay Rate-4.4E-07
L11 43689U 18087A 19111.13678141 -.00000044 00000-0 00000+0 0 9996
L22 43689 98.7100 171.5664 0003280 121.8001 238.3505 14.21483120 23459

Live tracking and technical data element details for METOP-C (NORAD 43689). METOP-C can be tracked NOW for your location showing map with azimuth and elevation plus other details from your city location.

Track the satellite on the map from your city or location and see movement details for azimuth, elevation, latitude, longitude, range, height, and movement on the map or in text.







IsCatalogInMostPopularTable: catalog: 43689, numindb: 103
Update: records affected: 1



GetName: 43689 METOP-C

Hit Count: updated at: Mon, 22 Apr 2019 12:21:29 GMT